FENGYUN 1C DEB

Satellite information

Favourite Embed

Satellite Type and Status

DEBRISIN ORBIT

Key statistics

Satellite FENGYUN 1C DEB at a glance.

Uptime

9554

Days in orbit

Revolutions

≈ 13.6

Per day

Orbit

SSO

Sun Synchronous Orbit

Inclination

98.9

Latest

Satellite identification and parameters

Extended collection of information and parameters for FENGYUN 1C DEB.

Object identification

Identified? True

Debris? True

Object name: FENGYUN 1C DEB

International designator: 1999-025EEG

Object number (NORAD): 37048

Object ID (CCSDS): 37048

Country: PEOPLES REPUBLIC OF CHINA (PRC)

Current information (Y/N): Y

RCS size: SMALL

Orbital parameters

Period: 105.497 minutes

Inclination: 98.9111 deg

SMA: 7395.834 km

Apoapsis: 1204.499 km

Periapsis: 830.9 km

RAAN: 58.1336 deg

Eccentricy: 0.0252574

Argument of periapsis: 216.6132 deg

Mean anomaly: 268.1383 deg

Mean motion: 13.6496658 rev/day

Mean motion (dot): 0.00000473 rev/day2

B* drag term: 0.00051092 1/REarth

Two-line elements (TLE)

Creation date: July 2, 2025, 5:47 p.m.

Reference frame: TEME

Reference center: EARTH

Epoch: July 2, 2025, 11:30 a.m. UTC

TLE line 0: 0 FENGYUN 1C DEB

TLE line 1: 1 37048U 99025EEG 25183.47962130 .00000473 00000-0 51092-3 0 9992

TLE line 2: 2 37048 98.9111 58.1336 0252574 216.6132 268.1383 13.64966580599423

Live tracking on map

Real-time ground track for satellite FENGYUN 1C DEB.

In-orbit conjunctions

A list of the most updated potential collisions computed for object FENGYUN 1C DEB.

Target Orbit TCA Probability of collision Miss distance Type
NOAA 16 DEB SSO 2025-04-17 03:42:33 0.0002276693 64.0 (m) DEBRIS
COSMOS 2389 LEO 2024-10-08 03:19:26 0.0001709708 696.0 (m) PAYLOAD

Associated space launch

Chinese polar orbiting meteorological satellite

FENGYUN 1C DEB was lifted into orbit during the mission ‘Long March 4B | Feng Yun 1C’, on board a Long March 4B space rocket.

The launch took place on May 10, 1999, 1:33 a.m. from Launch Complex 7.

For more information about the launch, click the button.

Launch to space Long March 4B | Feng Yun 1C
Long March 4B | Feng Yun 1C

Agency: N/A

Status: Launch Successful

Launch date: May 10, 1999, 1:33 a.m. UTC

Rocket: Long March 4B

Launch pad: Launch Complex 7

Location: Taiyuan Satellite Launch Center, People's Republic of China

...

Latest news about this satellite

There are no fresh news available about this satellite. Check back as we update our databases every day.


Newsletter sign-up

Weekly statistics, charts and insights to help you stay on top of the space industry.